Weather History for Thermopolis, WY

Change the Weather History Date:

Thursday, January 24, 2013

  Actual Average (KWRL) Record (KWRL)
Temperature  
Mean Temperature 36 °F 18 °F  
Max Temperature 41 °F 31 °F 59 °F (2005)
Min Temperature 30 °F 4 °F -17 °F (2008)
Degree Days  
Heating Degree Days 30 47  
Month to date heating degree days 1159  
Since 1 July heating degree days 4522  
Cooling Degree Days 0 0  
Month to date cooling degree days 0  
Year to date cooling degree days 0  
Moisture  
Dew Point 17 °F    
Average Humidity 49    
Maximum Humidity 69    
Minimum Humidity 24    
Precipitation  
Precipitation 0.00 in 0.01 in 0.12 in (1982)
Month to date precipitation 0.18  
Year to date precipitation 0.18  
Sea Level Pressure  
Sea Level Pressure 30.11 in    
Wind  
Wind Speed 21 mph (SSW)    
Max Wind Speed 40 mph    
Max Gust Speed 53 mph    
Visibility 10 miles    
Events      
T = Trace of Precipitation, MM = Missing Value Source: NWS Daily Summary

Daily Weather History Graph

Daily Weather History Graph

Search for Another Location

Airport:

Trip Planner

Search our weather history database for the weather conditions in past years. The results will help you decide how hot, cold, wet, or windy it might be!

Date:

Astronomy

Jan. 24, 2013 Rise Set
Actual Time 7:36 AM MST 5:14 PM MST
Civil Twilight 7:05 AM MST 5:45 PM MST
Nautical Twilight 6:30 AM MST 6:20 PM MST
Astronomical Twilight 5:56 AM MST 6:53 PM MST
Moon 3:18 PM MST (1/24) 5:37 AM MST (1/24)
Length of Visible Light 10h 39m
Length of Day
9h 37m
Waxing Gibbous, 95% of the Moon is Illuminated
Jan 24
Waxing Gibbous
Jan 26
Full
Feb 3
Last Quarter
Feb 10
New
Feb 17
First Quarter

Hourly Weather History & Observations

Time (MST) Temp. Windchill Dew Point Humidity Pressure Visibility Wind Dir Wind Speed Gust Speed Precip Events Conditions
12:15 AM 35.6 °F 26.2 °F 5.0 °F 28% 30.12 in 10.0 mi South 15.0 mph 19.6 mph N/A   Clear
12:35 AM 35.6 °F 24.8 °F 5.0 °F 28% 30.11 in 10.0 mi South 19.6 mph 26.5 mph N/A   Clear
12:55 AM 35.6 °F 23.4 °F 5.0 °F 28% 30.11 in 10.0 mi SSW 25.3 mph 29.9 mph N/A   Clear
1:15 AM 37.4 °F 25.4 °F 5.0 °F 26% 30.10 in 10.0 mi SSW 27.6 mph 34.5 mph N/A   Clear
1:35 AM 39.2 °F 28.3 °F 5.0 °F 24% 30.10 in 10.0 mi SSW 25.3 mph 32.2 mph N/A   Clear
1:55 AM 37.4 °F 26.4 °F 5.0 °F 26% 30.10 in 10.0 mi SSW 23.0 mph - N/A   Clear
2:15 AM 37.4 °F 26.9 °F 5.0 °F 26% 30.11 in 10.0 mi SW 20.7 mph 26.5 mph N/A   Clear
2:35 AM 39.2 °F 29.6 °F 5.0 °F 24% 30.12 in 10.0 mi SSW 19.6 mph 25.3 mph N/A   Clear
2:55 AM 39.2 °F 29.0 °F 5.0 °F 24% 30.12 in 10.0 mi SW 21.9 mph 26.5 mph N/A   Clear
3:15 AM 39.2 °F 29.6 °F 6.8 °F 26% 30.12 in 10.0 mi SW 19.6 mph - N/A   Clear
3:35 AM 39.2 °F 29.6 °F 8.6 °F 28% 30.11 in 10.0 mi SW 19.6 mph - N/A   Clear
3:55 AM 39.2 °F 30.2 °F 5.0 °F 24% 30.10 in 10.0 mi SW 17.3 mph - N/A   Clear
4:15 AM 39.2 °F 30.5 °F 8.6 °F 28% 30.10 in 10.0 mi SSW 16.1 mph - N/A   Clear
4:35 AM 37.4 °F 27.2 °F 6.8 °F 28% 30.10 in 10.0 mi SSW 19.6 mph - N/A   Clear
4:55 AM 35.6 °F 24.8 °F 5.0 °F 28% 30.10 in 10.0 mi SSW 19.6 mph - N/A   Clear
5:15 AM 37.4 °F 27.5 °F 5.0 °F 26% 30.10 in 10.0 mi SSW 18.4 mph 23.0 mph N/A   Clear
5:35 AM 37.4 °F 27.5 °F 8.6 °F 30% 30.09 in 10.0 mi SW 18.4 mph 23.0 mph N/A   Clear
5:55 AM 37.4 °F 26.6 °F 8.6 °F 30% 30.09 in 10.0 mi WSW 21.9 mph 29.9 mph N/A   Clear
6:15 AM 37.4 °F 26.4 °F 10.4 °F 33% 30.09 in 10.0 mi SW 23.0 mph 35.7 mph N/A   Clear
6:35 AM 37.4 °F 25.4 °F 12.2 °F 36% 30.07 in 10.0 mi SSW 27.6 mph 42.6 mph N/A   Clear
6:55 AM 35.6 °F 23.2 °F 14.0 °F 41% 30.08 in 10.0 mi SSW 26.5 mph 36.8 mph N/A   Clear
7:15 AM 35.6 °F 24.8 °F 15.8 °F 44% 30.08 in 10.0 mi SW 19.6 mph 28.8 mph N/A   Clear
7:35 AM 33.8 °F 21.0 °F 17.6 °F 52% 30.07 in 10.0 mi SSW 25.3 mph 33.4 mph N/A   Clear
7:55 AM 33.8 °F 19.0 °F 19.4 °F 56% 30.05 in 10.0 mi SSW 35.7 mph 44.9 mph N/A   Clear
8:15 AM 33.8 °F 18.5 °F 21.2 °F 60% 30.03 in 10.0 mi SSW 39.1 mph 52.9 mph N/A   Clear
8:35 AM 33.8 °F 19.9 °F 21.2 °F 60% 30.03 in 10.0 mi South 31.1 mph 46.0 mph N/A   Clear
8:55 AM 32.0 °F 17.2 °F 19.4 °F 60% 30.03 in 10.0 mi South 32.2 mph 39.1 mph N/A   Clear
9:15 AM 32.0 °F 19.2 °F 19.4 °F 60% 30.06 in 10.0 mi South 23.0 mph 29.9 mph N/A   Clear
9:35 AM 33.8 °F 21.0 °F 21.2 °F 60% 30.07 in 10.0 mi SSW 25.3 mph 39.1 mph N/A   Clear
9:55 AM 35.6 °F 24.2 °F 23.0 °F 60% 30.09 in 10.0 mi SW 21.9 mph 32.2 mph N/A   Clear
10:15 AM 35.6 °F 22.3 °F 23.0 °F 60% 30.07 in 10.0 mi SSW 31.1 mph 39.1 mph N/A   Clear
10:35 AM 35.6 °F 23.0 °F 23.0 °F 60% 30.07 in 10.0 mi South 27.6 mph 44.9 mph N/A   Clear
10:55 AM 35.6 °F 22.7 °F 23.0 °F 60% 30.06 in 10.0 mi South 28.8 mph 40.3 mph N/A   Clear
11:15 AM 35.6 °F 20.8 °F 23.0 °F 60% 30.06 in 10.0 mi SSW 40.3 mph 50.6 mph N/A   Clear
11:35 AM 37.4 °F 24.0 °F 21.2 °F 52% 30.06 in 10.0 mi SSW 35.7 mph 50.6 mph N/A   Clear
11:55 AM 37.4 °F 23.6 °F 23.0 °F 56% 30.06 in 10.0 mi SSW 38.0 mph 50.6 mph N/A   Clear
12:15 PM 37.4 °F 25.2 °F 23.0 °F 56% 30.06 in 10.0 mi SSW 28.8 mph 52.9 mph N/A   Clear
12:35 PM 37.4 °F 24.6 °F 21.2 °F 52% 30.05 in 10.0 mi SSW 32.2 mph 41.4 mph N/A   Clear
12:55 PM 37.4 °F 26.1 °F 23.0 °F 56% 30.05 in 10.0 mi SSW 24.2 mph 36.8 mph N/A   Clear
1:15 PM 37.4 °F 25.0 °F 23.0 °F 56% 30.04 in 10.0 mi SSW 29.9 mph 38.0 mph N/A   Clear
1:35 PM 39.2 °F 27.2 °F 23.0 °F 52% 30.03 in 10.0 mi SW 31.1 mph 42.6 mph N/A   Clear
1:55 PM 41.0 °F 29.5 °F 23.0 °F 49% 30.03 in 10.0 mi SW 32.2 mph 43.7 mph N/A   Clear
2:15 PM 39.2 °F 28.3 °F 23.0 °F 52% 30.05 in 10.0 mi SW 25.3 mph 36.8 mph N/A   Clear
2:35 PM 37.4 °F 25.4 °F 26.6 °F 65% 30.07 in 10.0 mi WSW 27.6 mph 33.4 mph N/A   Clear
2:55 PM 37.4 °F 27.8 °F 26.6 °F 65% 30.07 in 10.0 mi West 17.3 mph - N/A   Clear
3:15 PM 37.4 °F 28.9 °F 23.0 °F 56% 30.08 in 10.0 mi West 13.8 mph - N/A   Scattered Clouds
3:35 PM 35.6 °F 27.5 °F 21.2 °F 56% 30.08 in 10.0 mi West 11.5 mph - N/A   Scattered Clouds
3:55 PM 37.4 °F 27.8 °F 21.2 °F 52% 30.08 in 10.0 mi WSW 17.3 mph - N/A   Clear
4:15 PM 37.4 °F 30.8 °F 23.0 °F 56% 30.10 in 10.0 mi West 9.2 mph - N/A   Clear
4:35 PM 35.6 °F 28.6 °F 21.2 °F 56% 30.10 in 10.0 mi NNW 9.2 mph - N/A   Clear
4:55 PM 35.6 °F 26.6 °F 21.2 °F 56% 30.12 in 10.0 mi NNW 13.8 mph - N/A   Clear
5:15 PM 35.6 °F 29.2 °F 21.2 °F 56% 30.12 in 10.0 mi NNW 8.1 mph - N/A   Clear
5:35 PM 35.6 °F 29.2 °F 19.4 °F 52% 30.12 in 10.0 mi North 8.1 mph 11.5 mph N/A   Clear
6:15 PM 35.6 °F 26.2 °F 17.6 °F 48% 30.14 in 10.0 mi NNW 15.0 mph - N/A   Clear
6:35 PM 35.6 °F 25.5 °F 17.6 °F 48% 30.16 in 10.0 mi NNW 17.3 mph - N/A   Clear
6:55 PM 35.6 °F 27.1 °F 19.4 °F 52% 30.16 in 10.0 mi NNW 12.7 mph - N/A   Clear
7:15 PM 35.6 °F 27.1 °F 19.4 °F 52% 30.18 in 10.0 mi NNW 12.7 mph - N/A   Clear
7:35 PM 35.6 °F 28.0 °F 19.4 °F 52% 30.18 in 10.0 mi North 10.4 mph - N/A   Clear
7:55 PM 35.6 °F 28.6 °F 19.4 °F 52% 30.19 in 10.0 mi NNE 9.2 mph - N/A   Clear
8:15 PM 35.6 °F 32.8 °F 19.4 °F 52% 30.20 in 10.0 mi ESE 3.5 mph - N/A   Clear
8:35 PM 35.6 °F 31.7 °F 19.4 °F 52% 30.20 in 10.0 mi ESE 4.6 mph - N/A   Clear
8:55 PM 35.6 °F 30.7 °F 19.4 °F 52% 30.20 in 10.0 mi ESE 5.8 mph - N/A   Clear
9:15 PM 33.8 °F 27.0 °F 19.4 °F 56% 30.20 in 10.0 mi SE 8.1 mph - N/A   Clear
9:35 PM 33.8 °F 24.3 °F 21.2 °F 60% 30.20 in 10.0 mi SE 13.8 mph - N/A   Clear
9:55 PM 32.0 °F 20.5 °F 21.2 °F 64% 30.18 in 10.0 mi SE 18.4 mph - N/A   Clear
10:15 PM 32.0 °F 22.5 °F 21.2 °F 64% 30.19 in 10.0 mi SE 12.7 mph - N/A   Clear
10:35 PM 32.0 °F 23.0 °F 23.0 °F 69% 30.19 in 10.0 mi SSE 11.5 mph - N/A   Clear
10:55 PM 30.2 °F 20.2 °F 21.2 °F 69% 30.19 in 10.0 mi SE 12.7 mph - N/A   Clear
11:15 PM 30.2 °F 20.8 °F 21.2 °F 69% 30.19 in 10.0 mi SE 11.5 mph - N/A   Clear
11:35 PM 30.2 °F 19.8 °F 21.2 °F 69% 30.19 in 10.0 mi SE 13.8 mph - N/A   Clear
11:55 PM 30.2 °F 21.3 °F 21.2 °F 69% 30.19 in 10.0 mi SE 10.4 mph - N/A   Clear